Location: Unspecified
(0.0000°N, 0.0000°E)
Time: 08:42:13
(UTC+00:00)

Transit 4A - Pass Details

Date: 22 December 2018
Orbit: 864 x 981 km, 66.8° (Epoch: 23 March)

Event Time Altitude Azimuth Distance (km) Brightness Sun altitude
Rises 01:13:59 0° 226° (SW) 3,478 - -60.2°
Reaches altitude 10° 01:17:01 10° 240° (WSW) 2,523 - -59.8°
Maximum altitude 01:21:24 22° 290° (WNW) 1,793 - -59.1°
Drops below altitude 10° 01:25:45 10° 339° (NNW) 2,493 - -58.4°
Sets 01:28:46 0° 354° (N) 3,427 - -57.9°
